COSMOS 2251 DEB, 39583

Orbit data source: Space-Track

COSMOS 2251 DEB, 39583 is space debris in LEO originally from a launch on Wed, 16 Jun 1993 UTC launched from the Plesetsk Missile And Space Complex (PKMTR). The debris from Iridium 33, an American commercial communications satellite, has been tracked extensively since its accidental collision with the defunct Russian satellite Cosmos 2251 in 2009. This event, occurring at high speed in low Earth orbit (LEO), generated thousands of pieces of space debris, significantly increasing the risk of further collisions. The Iridium 33 debris cloud has impacted space traffic management and orbital debris mitigation strategies, making it a subject of ongoing study in space situational awareness.

Loading next visibility...
Identifier
39583, 1993-036BUN
Orbit
LEO
Country
Flag of CISCIS
Related business
Manufacturer
Unknown
Mission
Spacecraft
Bus & Motor
Unknown
Mass
Unknown
Launch date (UTC)
1993-06-16 (33 years ago)
Launch vehicle
Unknown
Launch site
Plesetsk Missile And Space Complex (PKMTR)
Object type
Payload
Rocket body
Debris
Shape & HBR
Unknown shape, 0.1 m
Radar Cross Section
Small (<0.1 m²)

Expand to show TLE details & history
Last TLE update: 1 day ago

TLE from 1 day ago
0 COSMOS 2251 DEB
1 39583U 93036BUN 26123.31551121  .00011314  00000-0  19301-2 0  9998
2 39583  73.9272 334.3870 0132466  57.8596 303.5343 14.63365530638486
Epoch: 2026-05-03T07:34Z
TLE epoch observation values (Epoch: 2026-05-03T07:34:20.168Z)
Latitude
-0.00003°
Longitude
-0.41786°
Altitude
634.16 km
Speed
7.568 km/s
True Right ascension
22h 17m 32s
True Declination
0° 00' 00"
Sunlit
Object was in daylight at epoch
Visualization orbit readout
Latitude
Unknown
Longitude
Unknown
Altitude
Unknown
Speed
Unknown
Apparent Right ascension
Unknown
Apparent Declination
Unknown
Sunlit
N/A
Visualization observer readout
Local Sidereal Time
20:49:40
Azimuth
Unknown
Elevation
Unknown
Doppler factor
Unknown
Orbital elements
Apogee altitude
773.426 km
Perigee altitude
586.435 km
Semi-major axis
7,058.067 km
Eccentricity
0.01325
Inclination
73.9272°
RAAN
334.387°
Arg. of periapsis
57.8596°
True anomaly
302.25744°
Mean anomaly
303.5343°
Eccentric anomaly
302.89703°
Mean motion
3.66028 °/min
Orbital period
98.35 mins
BSTAR
0.0019301
Loading maneuver chart data...
Computing Atmospheric mass density...

Documentation

Showing up to 5 results
|